sat.trackr.live / text

‹ back to catalog

STARLINK-35234

NORAD 65601 · 2025-207K

PAYLOAD ACTIVE UNKNOWN

§ Identity

Operator
Country
US
Launch date
2025-09-13
Launch site
AFWTR
Launch vehicle
Mass (kg)
RCS (m²)

Purposes: comms

External: N2YO · Heavens-Above · Gunter

§ Orbital elements

Epoch: 2026-05-25T03:31:42.716352Z

Period
95.64 min
Inclination
97.4500°
Eccentricity
0.0001584
Mean motion
15.05647981 rev/d
Perigee alt
548.4 km
Apogee alt
550.6 km
Semi-major
6,927.7 km
B*
-4.4928e-5
RAAN
213.6230°
Arg perigee
132.2770°
Mean anomaly
227.8592°
Rev number
3,976

§ Raw data

STARLINK-352341 65601U 25207K   26145.14702218 -.00000707  00000+0 -44928-4 0  99932 65601  97.4500 213.6230 0001584 132.2770 227.8592 15.05647981 39768

JSON: /api/v1/satellites/65601 · /tle

For live sub-satellite position, see the globe view (requires WebGL).

§ Visibility from observer

Set your observer location to see the next 7 days of passes ≥ 10°. The values pass through the URL so the page stays shareable.

No JS? Fill the form by hand. The geolocation button needs JavaScript.